{"data":{"norad_id":48373,"intl_designator":"2021-038W","name":"STARLINK-2609","alt_names":[],"object_type":"PAYLOAD","status":"ACTIVE","operator":null,"country":"US","launch_date":"2021-05-04","launch_site_code":"AFETR","launch_vehicle":null,"mission":null,"orbit_class":"UNKNOWN","rcs_meters":null,"size_class":null,"mass_kg":null,"dimensions":null,"purposes":["comms"],"wikipedia_slug":null,"has_3d_model":false,"image_url":null,"decayed_at":null,"tle_current":{"epoch":"2026-09-19T02:19:36.582816Z","epoch_age_seconds":125496,"freshness":"FRESH","line1":"1 48373U 21038W   26262.09695119 -.00003008  00000+0 -85241-4 0  9993","line2":"2 48373  53.1614 165.4013 0002349  71.1136 289.0120 15.31676089296896","mean_motion":15.31676089,"eccentricity":0.0002349,"inclination_deg":53.1614,"raan_deg":165.4013,"arg_perigee_deg":71.1136,"mean_anomaly_deg":289.012,"bstar":-8.5241e-5,"rev_number":29689,"period_min":94.014655601247,"perigee_km":469.20245565021,"apogee_km":472.42009154915,"semimajor_km":6848.9482735997,"source":"CELESTRAK","updated_at":"2026-09-20T09:00:38.942421Z"}}}